Terminal Aerodrome Forecast
Issued by NWS Sterling, VA

Current Version | Previous Version | Graphics & Text | Print | Product List | Glossary On
Versions: 1 2 3 4 5 6 7 8 9 10 11 12 13 14 15 16 17 18 19 20 21 22 23 24
000
FTUS41 KLWX 152346
TAFDCA
TAF
KDCA 152346Z 1600/1706 VRB03KT P6SM BKN020
     FM160900 VRB03KT P6SM BKN070
     FM170300 VRB04KT 5SM -SN OVC040=

USA.gov is the U.S. government's official web portal to all federal, state and local government web resources and services.